Weather History for Worcester, MA

Change the Weather History Date:

Friday, November 1, 2013

  Actual Average Record
Temperature  
Mean Temperature 59 °F 45 °F  
Max Temperature 65 °F 53 °F 73 °F (2003)
Min Temperature 53 °F 37 °F 16 °F (1925)
Degree Days  
Heating Degree Days 6 20  
Month to date heating degree days 6 20  
Since 1 July heating degree days 604 681  
Cooling Degree Days 0 0  
Month to date cooling degree days 0 0  
Year to date cooling degree days 572 471  
Growing Degree Days 10 (Base 50)    
Moisture  
Dew Point 56 °F    
Average Humidity 83    
Maximum Humidity 93    
Minimum Humidity 72    
Precipitation  
Precipitation 0.15 in 0.14 in 2.42 in (1988)
Month to date precipitation 0.15 0.14  
Year to date precipitation 37.83 40.11  
Snow  
Snow 0.00 in 0.00 in T in (1993)
Month to date snowfall 0.0 0.0  
Since 1 July snowfall 0.0 0.2  
Since 1 September snowfall 0.0 0.2  
Snow Depth 0.00 in    
Sea Level Pressure  
Sea Level Pressure 29.59 in    
Wind  
Wind Speed 21 mph (SW)    
Max Wind Speed 36 mph    
Max Gust Speed 48 mph    
Visibility 9 miles    
Events Rain    
T = Trace of Precipitation, MM = Missing Value Source: NWS Daily Summary

Daily Weather History Graph

Daily Weather History Graph

Search for Another Location

Airport:

Trip Planner

Search our weather history database for the weather conditions in past years. The results will help you decide how hot, cold, wet, or windy it might be!

Date:

Astronomy

Nov. 01, 2013 Rise Set
Actual Time 7:20 AM EDT 5:40 PM EDT
Civil Twilight 6:51 AM EDT 6:09 PM EDT
Nautical Twilight 6:18 AM EDT 6:42 PM EDT
Astronomical Twilight 5:45 AM EDT 7:15 PM EDT
Moon 5:07 AM EDT (11/1) 4:33 PM EDT (11/1)
Length of Visible Light 11h 18m
Length of Day
10h 19m
Waning Crescent, 4% of the Moon is Illuminated
Nov 1
Waning Crescent
Nov 3
New
Nov 10
First Quarter
Nov 17
Full
Nov 25
Last Quarter

Hourly Weather History & Observations

Time (EDT) Temp. Dew Point Humidity Pressure Visibility Wind Dir Wind Speed Gust Speed Precip Events Conditions
12:54 AM 60.1 °F 57.9 °F 93% 29.76 in 9.0 mi SW 20.7 mph 28.8 mph 0.00 in   Overcast
1:42 AM 60.1 °F 55.9 °F 86% 29.74 in 8.0 mi SW 25.3 mph 38.0 mph 0.02 in Rain Light Rain
1:54 AM 59.0 °F 55.0 °F 87% 29.74 in 10.0 mi SW 21.9 mph 34.5 mph 0.02 in Rain Light Rain
2:54 AM 59.0 °F 55.0 °F 87% 29.70 in 10.0 mi SSW 18.4 mph 26.5 mph 0.01 in   Mostly Cloudy
3:22 AM 59.0 °F 55.9 °F 90% 29.69 in 10.0 mi SSW 19.6 mph 29.9 mph N/A   Mostly Cloudy
3:54 AM 59.0 °F 57.0 °F 93% 29.67 in 10.0 mi SSW 19.6 mph 31.1 mph N/A   Overcast
4:26 AM 60.1 °F 57.0 °F 90% 29.65 in 10.0 mi SSW 19.6 mph 31.1 mph N/A   Mostly Cloudy
4:54 AM 60.1 °F 57.0 °F 90% 29.64 in 10.0 mi SSW 17.3 mph 27.6 mph N/A   Scattered Clouds
5:07 AM 60.1 °F 57.0 °F 90% 29.63 in 10.0 mi SSW 19.6 mph 29.9 mph N/A   Mostly Cloudy
5:15 AM 61.0 °F 57.0 °F 87% 29.62 in 10.0 mi SSW 18.4 mph 27.6 mph N/A   Scattered Clouds
5:23 AM 61.0 °F 57.0 °F 87% 29.62 in 10.0 mi SSW 19.6 mph 27.6 mph N/A   Mostly Cloudy
5:54 AM 62.1 °F 57.9 °F 86% 29.61 in 10.0 mi SW 21.9 mph 35.7 mph N/A   Overcast
6:21 AM 62.1 °F 57.9 °F 86% 29.60 in 10.0 mi SSW 29.9 mph 43.7 mph N/A   Scattered Clouds
6:54 AM 63.0 °F 57.9 °F 84% 29.58 in 10.0 mi SSW 27.6 mph 41.4 mph N/A   Partly Cloudy
7:54 AM 64.0 °F 57.9 °F 80% 29.57 in 10.0 mi SW 32.2 mph 42.6 mph 0.00 in Rain Light Rain
8:22 AM 64.0 °F 59.0 °F 84% 29.58 in 9.0 mi SSW 25.3 mph 44.9 mph 0.00 in Rain Light Rain
8:54 AM 64.0 °F 59.0 °F 84% 29.58 in 7.0 mi SSW 23.0 mph 41.4 mph 0.00 in Rain Light Rain
9:54 AM 63.0 °F 59.0 °F 87% 29.55 in 6.0 mi SSW 21.9 mph 35.7 mph 0.03 in Rain Light Rain
10:20 AM 63.0 °F 60.1 °F 90% 29.53 in 7.0 mi SSW 27.6 mph 38.0 mph 0.00 in Rain Light Rain
10:54 AM 63.0 °F 60.1 °F 90% 29.51 in 4.0 mi SSW 32.2 mph 46.0 mph 0.01 in Rain Light Rain
11:18 AM 63.0 °F 60.1 °F 90% 29.51 in 4.0 mi SSW 31.1 mph 42.6 mph 0.03 in Rain Light Rain
11:25 AM 63.0 °F 61.0 °F 93% 29.51 in 3.0 mi SW 27.6 mph 46.0 mph 0.05 in Rain Rain
11:33 AM 63.0 °F 60.1 °F 90% 29.53 in 2.5 mi WSW 33.4 mph 48.3 mph 0.06 in Rain Rain
11:40 AM 63.0 °F 59.0 °F 87% 29.54 in 6.0 mi WSW 28.8 mph 48.3 mph 0.07 in Rain Light Rain
11:50 AM 62.6 °F 57.2 °F 82% 29.55 in 10.0 mi WSW 28.8 mph 40.3 mph 0.07 in   Overcast
11:54 AM 62.1 °F 57.0 °F 84% 29.55 in 10.0 mi WSW 31.1 mph 41.4 mph 0.07 in Rain Light Rain
12:54 PM 61.0 °F 52.0 °F 72% 29.52 in 10.0 mi SW 21.9 mph 33.4 mph 0.01 in   Overcast
1:54 PM 61.0 °F 53.1 °F 75% 29.50 in 10.0 mi SW 21.9 mph 32.2 mph 0.00 in Rain Light Rain
2:54 PM 62.1 °F 52.0 °F 70% 29.51 in 10.0 mi SW 24.2 mph 31.1 mph 0.00 in   Overcast
3:54 PM 61.0 °F 52.0 °F 72% 29.51 in 10.0 mi SW 23.0 mph 32.2 mph 0.00 in   Scattered Clouds
4:54 PM 61.0 °F 52.0 °F 72% 29.51 in 10.0 mi SW 21.9 mph 27.6 mph N/A   Clear
5:54 PM 59.0 °F 52.0 °F 78% 29.52 in 10.0 mi SW 15.0 mph 24.2 mph N/A   Clear
6:54 PM 57.9 °F 52.0 °F 81% 29.55 in 10.0 mi SW 13.8 mph - N/A   Clear
7:54 PM 57.0 °F 52.0 °F 83% 29.58 in 10.0 mi SW 16.1 mph - N/A   Clear
8:54 PM 55.9 °F 51.1 °F 84% 29.60 in 10.0 mi SW 16.1 mph - N/A   Clear
9:54 PM 55.9 °F 51.1 °F 84% 29.61 in 10.0 mi WSW 12.7 mph - N/A   Clear
10:54 PM 55.0 °F 48.9 °F 80% 29.64 in 10.0 mi SW 13.8 mph - N/A   Clear
11:54 PM 55.0 °F 48.0 °F 77% 29.65 in 10.0 mi West 12.7 mph - N/A   Clear